Location: Wheeling
(40.0640°N, 80.7210°W)
Time: 05:23:17
(UTC-04:00)

CUTE 1.7 + AOD 2 - Visible Passes

Search period start: 28 October 2021 00:00
Search period end: 07 November 2021 00:00
Orbit: 593 x 609 km, 97.6° (Epoch: 27 October)

Date Brightness Start Highest point End Pass type
(mag) Time Alt. Az. Time Alt. Az. Time Alt. Az.
28 Oct ? 04:46:47 10° NE 04:49:04 21° ENE 04:49:04 21° ENE visible
28 Oct ? 06:22:17 10° N 06:25:50 28° WNW 06:25:50 28° WNW visible
29 Oct ? 04:58:01 10° NNE 05:00:29 25° ENE 05:00:29 25° ENE visible
29 Oct ? 06:34:08 10° NNW 06:37:15 22° WNW 06:37:15 22° WNW visible
30 Oct ? 05:09:22 10° NNE 05:11:55 30° NE 05:11:55 30° NE visible
30 Oct ? 06:46:08 10° NNW 06:48:41 17° WNW 06:48:41 17° WNW visible
31 Oct ? 05:20:47 10° NNE 05:23:20 33° NE 05:23:20 33° NE visible
31 Oct ? 06:58:24 10° NW 07:00:05 13° WNW 07:00:05 13° WNW visible
01 Nov ? 05:32:16 10° NNE 05:34:45 34° NNE 05:34:45 34° NNE visible
02 Nov ? 05:43:49 10° N 05:46:09 32° N 05:46:09 32° N visible
03 Nov ? 05:55:26 10° N 05:57:34 28° N 05:57:34 28° N visible
04 Nov ? 06:07:06 10° N 06:08:59 23° NNW 06:08:59 23° NNW visible
05 Nov ? 04:43:29 10° NE 04:43:37 11° NE 04:43:37 11° NE visible
05 Nov ? 06:18:50 10° N 06:20:23 19° NNW 06:20:23 19° NNW visible
06 Nov ? 04:54:40 10° NE 04:55:03 12° NE 04:55:03 12° NE visible
06 Nov ? 06:30:39 10° NNW 06:31:48 16° NNW 06:31:48 16° NNW visible
